• In Belarus
  • List of Countries
  • For 7 days
  • Water Temperature
  • Satellite Maps
  • Weather Map
  • Weather Widgets
  • user-avatar
    Login

    Hourly Weather Kielce

    Today, 19 August, Sunday

    Time Temperature Precipitation Wind Pressure Humidity
    00:00 +18°C° 0 mm 0 mps 737 mmHg 74%
    01:00 +18°C° 0 mm 0 mps 737 mmHg 76%
    02:00 +17°C° 0 mm 0 mps 737 mmHg 77%
    03:00 +17°C° 0 mm 0 mps 737 mmHg 79%
    04:00 +17°C° 0 mm 0 mps 737 mmHg 80%
    05:00 +18°C° 0 mm 0 mps 737 mmHg 75%
    06:00 +20°C° 0 mm 0 mps 738 mmHg 70%
    07:00 +21°C° 0 mm 0 mps 738 mmHg 63%
    08:00 +23°C° 0 mm 0 mps 738 mmHg 58%
    09:00 +25°C° 0 mm 0 mps 738 mmHg 53%
    10:00 +29°C° 0 mm 1 mps 738 mmHg 48%
    11:00 +29°C° 0 mm 1 mps 738 mmHg 45%
    12:00 +30°C° 0 mm 1 mps 738 mmHg 42%
    13:00 +31°C° 0 mm 1 mps 738 mmHg 40%
    14:00 +30°C° 0 mm 1 mps 737 mmHg 42%
    15:00 +30°C° 0 mm 1 mps 737 mmHg 43%
    16:00 +29°C° 0 mm 1 mps 737 mmHg 45%
    17:00 +27°C° 0 mm 1 mps 736 mmHg 50%
    18:00 +26°C° 0 mm 1 mps 736 mmHg 55%
    19:00 +24°C° 0 mm 1 mps 736 mmHg 59%
    20:00 +24°C° 0 mm 1 mps 736 mmHg 62%
    21:00 +23°C° 0 mm 1 mps 736 mmHg 64%
    22:00 +22°C° 0 mm 1 mps 736 mmHg 67%
    23:00 +22°C° 0 mm 1 mps 736 mmHg 67%

    Tomorrow, 20 August, Monday

    Time Temperature Precipitation Wind Pressure Humidity
    00:00 +22°C° 0 mm 1 mps 736 mmHg 68%
    01:00 +22°C° 0 mm 1 mps 736 mmHg 68%
    02:00 +22°C° 0 mm 1 mps 736 mmHg 68%
    03:00 +22°C° 0 mm 1 mps 735 mmHg 69%
    04:00 +20°C° 0 mm 2 mps 735 mmHg 69%
    05:00 +21°C° 0 mm 2 mps 735 mmHg 68%
    06:00 +23°C° 0 mm 2 mps 735 mmHg 66%
    07:00 +23°C° 0 mm 2 mps 735 mmHg 65%
    08:00 +25°C° 0 mm 2 mps 735 mmHg 61%
    09:00 +26°C° 0 mm 3 mps 735 mmHg 57%
    10:00 +27°C° 0 mm 3 mps 735 mmHg 53%
    11:00 +28°C° 0 mm 3 mps 735 mmHg 49%
    12:00 +29°C° 0 mm 3 mps 735 mmHg 45%
    13:00 +30°C° 0 mm 3 mps 734 mmHg 42%
    14:00 +30°C° 0 mm 3 mps 734 mmHg 43%
    15:00 +30°C° 0 mm 3 mps 734 mmHg 45%
    16:00 +30°C° 0 mm 3 mps 734 mmHg 46%
    17:00 +28°C° 0 mm 2 mps 734 mmHg 50%
    18:00 +27°C° 0 mm 2 mps 733 mmHg 54%
    19:00 +26°C° 0 mm 2 mps 733 mmHg 57%
    20:00 +25°C° 0 mm 2 mps 734 mmHg 61%
    21:00 +24°C° 0 mm 2 mps 734 mmHg 64%
    22:00 +21°C° 0 mm 2 mps 734 mmHg 68%
    23:00 +21°C° 0 mm 2 mps 734 mmHg 70%

    Day after tomorrow, 21 August, Tuesday

    Time Temperature Precipitation Wind Pressure Humidity
    00:00 +20°C° 0 mm 2 mps 734 mmHg 73%
    01:00 +20°C° 0 mm 2 mps 734 mmHg 76%
    02:00 +19°C° 0 mm 2 mps 735 mmHg 78%
    03:00 +19°C° 0 mm 2 mps 735 mmHg 80%
    04:00 +19°C° 0 mm 2 mps 735 mmHg 82%
    05:00 +19°C° 0 mm 3 mps 736 mmHg 78%
    06:00 +19°C° 0 mm 3 mps 736 mmHg 75%
    07:00 +20°C° 0 mm 4 mps 736 mmHg 71%
    08:00 +21°C° 0 mm 4 mps 737 mmHg 64%
    09:00 +22°C° 0 mm 4 mps 737 mmHg 57%
    10:00 +23°C° 0 mm 4 mps 737 mmHg 50%
    11:00 +23°C° 0 mm 4 mps 737 mmHg 46%
    12:00 +25°C° 0 mm 4 mps 737 mmHg 42%
    13:00 +26°C° 0 mm 5 mps 737 mmHg 39%
    14:00 +25°C° 0 mm 4 mps 737 mmHg 39%
    15:00 +25°C° 0 mm 4 mps 737 mmHg 39%
    16:00 +25°C° 0 mm 4 mps 737 mmHg 39%
    17:00 +22°C° 0 mm 3 mps 737 mmHg 45%
    18:00 +20°C° 0 mm 3 mps 737 mmHg 51%
    19:00 +18°C° 0 mm 2 mps 737 mmHg 57%
    20:00 +18°C° 0 mm 2 mps 737 mmHg 59%
    21:00 +17°C° 0 mm 2 mps 738 mmHg 62%
    22:00 +16°C° 0 mm 1 mps 738 mmHg 65%
    23:00 +16°C° 0 mm 1 mps 738 mmHg 68%

    22 August, Wednesday

    Time Temperature Precipitation Wind Pressure Humidity
    00:00 +15°C° 0 mm 1 mps 738 mmHg 70%
    01:00 +15°C° 0 mm 1 mps 738 mmHg 73%
    02:00 +14°C° 0 mm 1 mps 738 mmHg 76%
    03:00 +14°C° 0 mm 1 mps 738 mmHg 79%
    04:00 +14°C° 0 mm 1 mps 738 mmHg 82%
    05:00 +15°C° 0 mm 2 mps 739 mmHg 78%
    06:00 +16°C° 0 mm 2 mps 739 mmHg 74%
    07:00 +17°C° 0 mm 2 mps 739 mmHg 70%
    08:00 +19°C° 0 mm 2 mps 739 mmHg 63%
    09:00 +21°C° 0 mm 3 mps 739 mmHg 56%
    10:00 +24°C° 0 mm 3 mps 739 mmHg 50%
    11:00 +24°C° 0 mm 3 mps 739 mmHg 47%
    12:00 +25°C° 0 mm 3 mps 738 mmHg 44%
    13:00 +26°C° 0 mm 3 mps 738 mmHg 41%
    14:00 +26°C° 0 mm 3 mps 738 mmHg 42%
    15:00 +26°C° 0 mm 3 mps 738 mmHg 42%
    16:00 +26°C° 0 mm 3 mps 737 mmHg 43%
    17:00 +24°C° 0 mm 3 mps 737 mmHg 50%
    18:00 +21°C° 0 mm 2 mps 737 mmHg 57%
    19:00 +20°C° 0 mm 2 mps 737 mmHg 64%
    20:00 +19°C° 0 mm 2 mps 737 mmHg 69%
    21:00 +18°C° 0 mm 2 mps 737 mmHg 73%
    22:00 +17°C° 0 mm 2 mps 737 mmHg 78%
    23:00 +16°C° 0 mm 2 mps 737 mmHg 80%

    23 August, Thursday

    Time Temperature Precipitation Wind Pressure Humidity
    00:00 +16°C° 0 mm 2 mps 736 mmHg 83%
    01:00 +15°C° 0 mm 2 mps 736 mmHg 85%
    02:00 +15°C° 0 mm 2 mps 736 mmHg 86%
    03:00 +15°C° 0 mm 2 mps 736 mmHg 88%
    04:00 +14°C° 0 mm 2 mps 735 mmHg 89%
    05:00 +15°C° 0 mm 2 mps 735 mmHg 84%
    06:00 +17°C° 0 mm 2 mps 735 mmHg 79%
    07:00 +18°C° 0 mm 2 mps 735 mmHg 74%
    08:00 +20°C° 0 mm 2 mps 735 mmHg 66%
    09:00 +24°C° 0 mm 1 mps 735 mmHg 58%
    10:00 +26°C° 0 mm 1 mps 735 mmHg 50%
    11:00 +28°C° 0 mm 1 mps 735 mmHg 45%
    12:00 +29°C° 0 mm 1 mps 735 mmHg 41%
    13:00 +29°C° 0 mm 0 mps 734 mmHg 37%
    14:00 +28°C° 0 mm 0 mps 734 mmHg 36%
    15:00 +28°C° 0 mm 0 mps 734 mmHg 36%
    16:00 +28°C° 0 mm 0 mps 733 mmHg 36%
    17:00 +28°C° 0 mm 1 mps 733 mmHg 42%
    18:00 +26°C° 0 mm 1 mps 733 mmHg 47%
    19:00 +24°C° 0 mm 2 mps 733 mmHg 53%
    20:00 +23°C° 0 mm 2 mps 733 mmHg 56%
    21:00 +23°C° 0 mm 2 mps 733 mmHg 59%
    22:00 +21°C° 0 mm 2 mps 733 mmHg 63%
    23:00 +20°C° 0 mm 2 mps 732 mmHg 66%

    24 August, Friday

    Time Temperature Precipitation Wind Pressure Humidity
    00:00 +20°C° 0 mm 2 mps 732 mmHg 69%
    01:00 +20°C° 0 mm 2 mps 732 mmHg 72%
    02:00 +20°C° 0 mm 2 mps 731 mmHg 75%
    03:00 +19°C° 0 mm 3 mps 731 mmHg 77%
    04:00 +19°C° 0 mm 3 mps 731 mmHg 79%
    05:00 +20°C° 0 mm 3 mps 731 mmHg 74%
    06:00 +22°C° 0 mm 3 mps 731 mmHg 69%
    07:00 +24°C° 0 mm 3 mps 731 mmHg 64%
    08:00 +26°C° 0 mm 3 mps 731 mmHg 57%
    09:00 +28°C° 0 mm 3 mps 731 mmHg 49%
    10:00 +32°C° 0 mm 4 mps 731 mmHg 41%
    11:00 +31°C° 0 mm 3 mps 730 mmHg 40%
    12:00 +31°C° 0 mm 3 mps 730 mmHg 39%
    13:00 +33°C° 0 mm 3 mps 730 mmHg 37%
    14:00 +31°C° 0 mm 3 mps 729 mmHg 39%
    15:00 +30°C° 0 mm 3 mps 729 mmHg 41%
    16:00 +30°C° 0 mm 2 mps 729 mmHg 44%
    17:00 +28°C° 0.3 mm 2 mps 729 mmHg 49%
    18:00 +27°C° 0.3 mm 2 mps 728 mmHg 54%
    19:00 +26°C° 0.3 mm 2 mps 728 mmHg 59%
    20:00 +25°C° 0.5 mm 2 mps 728 mmHg 64%
    21:00 +24°C° 0.5 mm 2 mps 728 mmHg 69%
    22:00 +23°C° 0.5 mm 2 mps 728 mmHg 74%
    23:00 +21°C° 0.2 mm 2 mps 728 mmHg 75%
    Show more